Location: Chuathbaluk
(61.5726°N, 159.2454°W)
Time: 03:15:42
(UTC+00:00)

Transit 4A - Pass Details

Date: 02 December 2020
Orbit: 864 x 980 km, 66.8° (Epoch: 26 January)

Event Time Altitude Azimuth Distance (km) Brightness Sun altitude
Rises 23:51:58 0° 296° (WNW) 3,692 11.0 4.7°
Reaches altitude 10° 23:54:34 10° 299° (WNW) 2,743 10.3 4.6°
Maximum altitude 00:01:00 67° 22° (NNE) 1,058 8.1 4.3°
Drops below altitude 10° 00:07:19 10° 106° (ESE) 2,701 10.3 4.0°
Sets 00:09:52 0° 109° (ESE) 3,632 10.9 3.9°
